Location: Newark
(46.2350°N, 1.5859°E)
Time: 01:45:52
(UTC+00:00)

Envisat - Visible Passes

Search period start: 20 September 2019 00:00
Search period end: 30 September 2019 00:00
Orbit: 764 x 766 km, 98.1° (Epoch: 19 September)

Date Brightness Start Highest point End Pass type
(mag) Time Alt. Az. Time Alt. Az. Time Alt. Az.
20 Sep 6.0 19:26:55 10° SW 19:29:55 16° W 19:32:56 10° NW visible
21 Sep 5.0 18:48:15 10° SSW 18:52:47 32° W 18:57:20 10° NNW visible
23 Sep 5.8 19:14:54 10° SW 19:18:32 19° W 19:22:10 10° NW visible
24 Sep 4.5 18:36:42 10° SSW 18:41:27 40° W 18:46:15 10° NNW visible
25 Sep 6.3 19:42:56 10° WSW 19:44:23 11° W 19:45:51 10° WNW visible
26 Sep 5.5 19:03:05 10° SSW 19:07:09 24° W 19:11:16 10° NW visible
27 Sep 4.1 18:25:14 10° S 18:30:09 50° W 18:35:06 10° NNW visible
28 Sep 6.0 19:30:17 10° WSW 19:32:58 14° W 19:35:39 10° NW visible
29 Sep 5.1 18:51:23 10° SSW 18:55:49 30° W 19:00:15 10° NNW visible
